Regional Weather Roundup
Issued by NWS Sioux Falls, SD

Home | Current Version | Previous Version | Text Only | Print | Product List | Glossary On
Versions: 1 2 3 4 5 6 7 8 9 10 11 12 13 14 15 16 17 18 19 20 21 22 23 24 25 26 27 28 29 30 31 32 33 34 35 36 37 38 39 40 41 42 43 44 45 46 47 48 49 50
000
ASUS43 KFSD 231410
RWRFSD

WEATHER ROUNDUP FOR SE SOUTH DAKOTA/SW MINNESOTA/NW IOWA
NATIONAL WEATHER SERVICE SIOUX FALLS SD
800 AM CST MON JAN 23 2017

NOTE: "FAIR" INDICATES FEW OR NO CLOUDS BELOW 12,000 FEET WITH NO
SIGNIFICANT WEATHER AND OR OBSTRUCTIONS TO VISIBILITY.


SDZ038>040-050-052>070-231500-
SOUTHEAST SOUTH DAKOTA

CITY           SKY/WX    TMP DP  RH WIND       PRES   REMARKS
BROOKINGS      CLOUDY    29  27  92 W7        29.83R WCI  22
CHAMBERLAIN    CLOUDY    30  28  92 SE3       29.83F
HURON          CLOUDY    29  26  89 CALM      29.86R
MADISON        CLOUDY    27  27 100 W8          N/A  WCI  18
MITCHELL       CLOUDY    31  26  82 CALM      29.87S
SIOUX FALLS    FLURRIES  30  28  92 W5        29.86R WCI  25
WINNER         CLOUDY    25  22  88 SE9       29.79F WCI  15
YANKTON        CLOUDY    30  23  74 CALM      29.88S
$$

MNZ071-072-080-081-089-090-097-098-231500-
SOUTHWEST MINNESOTA

CITY           SKY/WX    TMP DP  RH WIND       PRES   REMARKS
FAIRMONT       CLOUDY    32  28  85 N9        29.81F WCI  24
JACKSON        CLOUDY    32  28  86 N5        29.81S WCI  27
LUVERNE        CLOUDY    30  27  86 W7        29.85R WCI  23
MARSHALL       CLOUDY    31  29  92 NW8       29.82F WCI  23
MONTEVIDEO     CLOUDY    32  32 100 CALM      29.83F
PIPESTONE      CLOUDY    30  28  93 NW5       29.82R WCI  25
REDWOOD FALLS  CLOUDY    34  26  72 N7        29.81F WCI  28
TRACY          CLOUDY    32  31  95 NW9       29.82S WCI  24
WINDOM         CLOUDY    32  28  86 NW9       29.80F WCI  24
WORTHINGTON    CLOUDY    31  28  89 NW6       29.82R WCI  25
$$

IAZ001>003-012>014-020>022-031-032-NEZ013-014-SDZ071-231500-
NORTHWEST IOWA

CITY           SKY/WX    TMP DP  RH WIND       PRES   REMARKS
CHEROKEE       CLOUDY    32  30  92 NW3       29.85R
DENISON        CLOUDY    32  28  86 NW6       29.85R WCI  26
ESTHERVILLE    CLOUDY    31  28  89 N13       29.80F WCI  21
LE MARS        CLOUDY    32  28  86 W7        29.89R WCI  26
ORANGE CITY    CLOUDY    30  28  93 NW6       29.85R WCI  24
SHELDON        CLOUDY    32  32 100 VRB5      29.83R WCI  27
SIOUX CITY     CLOUDY    33  28  81 W8        29.89R WCI  26
SPENCER          N/A    N/A N/A N/A MISG      29.82S
STORM LAKE     CLOUDY    32  28  86 NW7       29.84R WCI  26
$$

ABBREVIATIONS USED IN REMARKS
   TC - TEMPERATURE IN CELSIUS
  WCI - WIND CHILL INDEX
   HX - HEAT INDEX
  VSB - VISIBILITY





USA.gov is the U.S. government's official web portal to all federal, state and local government web resources and services.